Miscellaneous Local Product
Issued by NWS North Platte, NE

Home | Current Version | Previous Version | Text Only | Print | Product List | Glossary On
Versions: 1 2 3 4 5 6 7 8 9 10 11 12 13 14 15 16 17 18 19 20 21 22 23 24 25 26 27 28 29 30 31 32 33 34 35 36 37 38 39 40 41 42 43 44 45 46 47 48 49 50
215
AXUS43 KLBF 190010
MISLBF


WESTERN AND NORTH CENTRAL NEBRASKA HOURLY WEATHER ROUNDUP
NATIONAL WEATHER SERVICE NORTH PLATTE NE
600 PM CST SAT NOV 18 2017

NOTE: "FAIR" INDICATES FEW OR NO CLOUDS BELOW 12,000 FEET WITH NO
SIGNIFICANT WEATHER AND/OR OBSTRUCTIONS TO VISIBILITY.

NOTE: STATIONS NOT REPORTING VARIABLES SUCH AS SKY/WEATHER OR
PRESSURE ARE PROVIDED BY RAWS AND APRS NETWORKS AND ARE NOT UNDER
NATIONAL WEATHER SERVICE QUALITY CONTROL.

...OBSERVATIONS IN AND NEAR THE EASTERN PANHANDLE OF NEBRASKA...

CITY           SKY/WX    TMP DP  RH WIND       PRES   REMARKS
PINE RIDGE     CLEAR     37  15  40 W5        30.16R WCI  33
GORDON         FAIR      36  17  45 W7        30.15R WCI  30
CHADRON        CLEAR     33  18  53 W7        30.17S WCI  27
ALLIANCE       CLEAR     31  13  47 W9        30.17R WCI  23
SIDNEY         CLEAR     34  16  47 NW12      30.20R WCI  25
$$

...OBSERVATIONS IN NORTHERN NEBRASKA AND FAR SOUTHERN SOUTH DAKOTA...

CITY           SKY/WX    TMP DP  RH WIND       PRES   REMARKS
WINNER         FAIR      34  23  64 N5        30.15R WCI  30
VALENTINE      PTCLDY    39  22  50 NW3       30.15R
THEDFORD       CLEAR     37  21  53 W7        30.17R WCI  31
AINSWORTH      CLEAR     36  24  62 N6        30.15R WCI  31
O`NEILL        CLEAR     32  25  73 NW6       30.15R WCI  27
ORD            CLEAR     34  24  67 NW8       30.14R WCI  27
BROKEN BOW     CLEAR     37  23  56 NW10      30.15R WCI  30
VALENTINE NWR    N/A     39  19  45 NW6G21      N/A  WCI  35
HALSEY           N/A     41  18  39 W6G16       N/A
BUTTE            N/A     31  22  69 N7          N/A  WCI  24
CHAMBERS         N/A     34  21  58 CALM        N/A
EWING            N/A     34  26  72 NW5         N/A  WCI  30
$$

...OBSERVATIONS IN SOUTHWEST NEBRASKA AND FAR NORTHEAST COLORADO...

CITY           SKY/WX    TMP DP  RH WIND       PRES   REMARKS
HOLYOKE        FAIR      41  14  33 NW5       30.21S
IMPERIAL       CLEAR     39  15  37 W7        30.21R WCI  34
OGALLALA       CLEAR     36  19  51 W8        30.19R WCI  29
NORTH PLATTE   CLEAR     35  19  52 NW7       30.19R WCI  29
MCCOOK         CLEAR     38  21  50 NW7       30.21R WCI  33
LEXINGTON      CLEAR     35  24  62 NW10      30.19R WCI  28
STAPLETON        N/A     37  22  54 CALM        N/A
GOTHENBURG       N/A     41  20  42 NW3         N/A
CALLAWAY         N/A     34  22  61 NW7         N/A  WCI  28
$$

...OBSERVATIONS IN CENTRAL LINCOLN COUNTY AREA...

CITY           SKY/WX    TMP DP  RH WIND       PRES   REMARKS
N.P. AIRPORT   CLEAR     35  19  52 NW7       30.19R WCI  29
N.P. DOWNTOWN    N/A     40  22  47 CALM        N/A
N.P. SOUTHEAST   N/A     41  20  43 CALM        N/A
N.P. HILLCREST   N/A     40  20  45 NW8         N/A  WCI  34
$$

...SOME OBSERVATIONS FROM AROUND THE REGION...

CITY           SKY/WX    TMP DP  RH WIND       PRES   REMARKS
DENVER         PTCLDY    34  23  64 S12       30.18S WCI  25
LIMON          CLEAR     32  13  45 S5        30.22F WCI  27
ASPEN          CLOUDY    23  13  65 S7        30.36R WCI  15
LARAMIE        CLOUDY    24  11  57 SW12      30.20R WCI  13
CASPER         CLEAR     30  20  66 SW21      30.18R WCI  17
CHEYENNE       CLEAR     32  15  49 W14       30.18S WCI  22
SCOTTSBLUFF    CLEAR     38  17  42 W8        30.19R WCI  32
GRAND ISLAND   CLEAR     38  27  64 NW7       30.16R WCI  33
OMAHA          CLEAR     38  25  59 NW15      30.11R WCI  29
SIOUX FALLS    CLEAR     31  16  54 NW15      30.10R WCI  20
PIERRE         CLEAR     28  21  75 N5        30.13S WCI  23
RAPID CITY     CLEAR     33  19  56 N9        30.13S WCI  25
BISMARCK       CLOUDY    30  18  60 W5        30.10F WCI  25
KANSAS CITY    CLEAR     46  31  55 NW14      30.07R
HILL CITY      CLEAR     42  21  43 NW7       30.23R
WICHITA        PTCLDY    48  24  39 NW9       30.18R
DODGE CITY     CLEAR     40  17  39 NW8       30.25R WCI  34
OKLAHOMA CITY  PTCLDY    48  31  51 N7        30.20R
DALLAS         CLOUDY    58  36  43 N22G33    30.17R
AMARILLO       CLEAR     41  11  29 N7        30.30R
$$




USA.gov is the U.S. government's official web portal to all federal, state and local government web resources and services.